Location: Newark
(40.6600°N, 16.2200°E)
Time: 21:19:47
(UTC+00:00)

Envisat - Visible Passes

Search period start: 18 September 2020 00:00
Search period end: 28 September 2020 00:00
Orbit: 764 x 766 km, 98.1° (Epoch: 18 September)

Date Brightness Start Highest point End Pass type
(mag) Time Alt. Az. Time Alt. Az. Time Alt. Az.
18 Sep 6.1 17:26:42 10° SW 17:29:58 17° W 17:33:17 10° NW visible
19 Sep 6.0 03:55:51 10° NE 03:59:27 19° E 04:03:01 10° SE visible
21 Sep 6.0 17:14:39 10° SW 17:18:31 22° W 17:22:25 10° NW visible
22 Sep 6.2 03:45:06 10° NE 03:47:59 15° E 03:50:49 10° SE visible
23 Sep 6.5 17:42:17 10° WSW 17:44:14 12° W 17:46:11 10° WNW visible
24 Sep 5.6 04:09:23 10° NE 04:13:39 26° E 04:17:53 10° SSE visible
25 Sep 6.5 03:34:49 10° ENE 03:36:28 11° E 03:38:07 10° ESE visible
26 Sep 6.2 17:29:44 10° SW 17:32:44 16° W 17:35:46 10° NW visible
27 Sep 6.0 03:58:24 10° NE 04:02:11 21° E 04:05:59 10° SE visible
